Theta_e
324 324 322 322 321 321 321 319 315 315 313 312 312 310 309 307 305 303 301 308 313 313 316 320 320 319 319 320 322 327 328 330 330 329 327 322 321 320 320 323 323 323 324
319 318 317 316 315 317 317 315 311 313 309 309 309 309 308 307 308 306 303 303 313 312 314 316 317 317 318 318 318 319 321 324 326 327 328 327 322 320 320 321 322 323 322
312 311 310 310 311 310 309 309 310 311 307 307 306 307 306 307 305 305 304 302 302 308 311 313 314 315 316 318 318 317 317 318 319 321 323 326 323 321 321 321 321 321 321
309 308 308 307 305 305 307 305 304 301 299 299 299 301 305 304 303 303 301 300 300 300 303 308 310 310 312 315 317 318 318 317 316 316 317 320 322 326 323 322 321 320 320
303 302 301 300 300 299 299 303 300 297 294 295 298 300 302 300 299 300 299 299 297 295 297 298 304 300 304 309 312 314 317 318 316 316 316 316 317 319 324 325 323 322 321
297 297 295 294 294 293 293 297 295 294 291 290 298 299 298 296 298 296 297 294 293 292 293 291 294 292 299 304 308 311 314 314 314 313 313 314 314 316 317 319 324 324 323
292 291 291 290 289 289 288 289 292 288 287 287 294 296 296 292 295 291 291 288 288 290 289 289 291 289 289 300 304 307 309 310 310 309 311 312 312 313 314 316 318 320 323
290 289 288 288 287 287 286 286 286 286 285 286 287 290 289 293 288 290 286 286 284 286 286 288 287 287 287 291 296 302 304 307 307 306 306 306 307 309 312 313 314 316 318
288 288 287 287 286 286 285 284 283 284 282 284 284 286 280 279 283 289 284 283 283 283 283 285 285 286 287 290 293 296 301 303 303 303 303 303 304 305 306 308 312 313 314
286 287 286 286 285 285 284 284 284 282 282 280 282 284 281 280 277 277 280 281 282 282 282 283 283 285 287 288 292 294 295 297 297 298 299 299 301 302 304 305 307 309 312
285 285 284 284 284 284 283 282 282 282 282 280 280 280 280 279 279 276 275 276 279 281 281 282 282 283 285 287 287 289 292 293 293 294 295 296 298 300 302 303 305 306 307
283 283 283 282 282 282 282 281 281 280 280 280 280 280 279 277 277 276 275 275 276 278 280 281 281 282 283 283 286 288 289 290 291 292 292 294 296 297 299 301 303 304 305
281 281 281 281 281 281 281 281 280 280 279 278 279 278 279 279 279 279 277 275 274 277 278 279 280 281 283 283 283 286 286 288 289 290 291 292 293 294 295 297 299 301 302
281 281 280 280 280 280 280 280 279 279 279 278 278 278 279 279 279 279 278 276 273 275 275 276 278 279 280 281 282 284 281 284 286 288 289 290 291 292 293 295 296 298 299
282 280 280 279 279 279 279 279 278 277 277 277 277 277 277 278 278 277 278 277 275 271 272 274 275 278 278 279 280 280 279 282 284 285 286 288 289 290 292 294 295 296 297
280 279 279 279 278 278 278 278 277 277 276 276 277 276 276 277 276 276 276 276 275 273 271 274 274 276 277 278 279 278 278 280 281 283 284 285 287 289 290 291 292 294 296
279 279 279 278 278 277 277 276 276 276 276 276 276 276 276 276 275 274 274 274 274 273 271 273 274 275 275 275 276 276 277 276 277 281 283 284 285 286 287 287 288 290 292
279 278 278 278 277 277 277 276 276 276 275 276 276 276 275 277 274 274 273 273 272 272 271 271 273 273 273 274 274 274 276 277 276 279 283 283 284 284 285 285 286 287 288
278 277 277 277 277 276 276 276 276 276 276 276 276 275 275 275 274 273 273 272 272 274 272 272 271 273 273 274 273 274 275 275 277 280 281 282 282 283 283 284 284 285 284
277 277 276 276 276 276 276 276 276 276 276 276 276 276 275 274 274 273 273 273 274 273 273 272 271 272 273 274 274 273 273 275 275 277 279 279 281 281 282 283 283 282 283
277 276 276 276 275 275 276 275 275 275 275 275 275 276 275 275 277 277 275 274 273 272 272 271 271 272 272 273 272 274 273 274 275 276 275 276 277 277 278 280 280 281 283
277 276 275 274 274 276 279 280 277 275 276 275 274 275 275 274 275 278 278 278 278 273 267 269 272 273 273 273 274 274 273 272 271 277 275 275 277 276 277 278 281 282 283
275 274 274 274 273 274 280 280 280 276 275 274 274 274 275 275 274 274 275 277 277 278 279 277 273 273 272 273 273 273 273 273 272 275 274 273 275 274 276 278 281 282 283
274 274 273 273 273 273 279 280 280 276 274 274 274 274 274 274 274 274 273 273 274 275 276 276 274 274 274 275 273 273 272 271 272 273 275 270 274 274 276 276 280 282 282
273 273 272 271 271 271 279 280 279 274 274 273 274 274 274 273 276 278 275 273 272 273 276 277 277 277 276 276 275 271 267 267 267 270 273 271 273 272 274 274 277 280 281
274 273 273 271 271 269 277 279 279 274 269 272 272 274 276 276 278 279 276 271 268 270 272 269 268 270 271 271 273 271 269 266 266 264 270 268 269 270 268 272 275 274 275
Wind_Speed
5 5 4 4 4 4 4 4 4 4 5 5 5 5 5 5 5 3 2 8 10 15 16 17 18 18 18 17 16 17 17 17 15 13 9 6 5 5 5 6 7 7 7
5 5 5 4 5 4 3 4 4 4 4 4 5 6 6 6 6 6 4 6 15 18 18 20 20 19 18 18 18 18 17 17 18 19 17 11 8 7 5 5 7 8 9
7 6 5 5 5 4 6 5 5 6 5 4 5 4 4 5 5 6 5 6 7 15 20 22 23 23 22 21 20 19 18 19 19 18 20 23 8 10 9 8 8 9 10
7 6 5 6 5 5 4 4 5 5 4 5 4 5 5 5 6 7 7 7 8 8 13 23 22 24 24 23 22 21 21 20 19 19 20 19 18 17 13 11 10 10 10
9 8 7 6 6 5 6 5 6 4 4 4 4 5 4 5 6 7 10 10 10 9 7 18 19 24 25 24 24 23 22 20 20 22 22 22 22 23 17 19 14 13 12
10 9 8 8 7 7 7 7 7 6 4 3 4 6 5 5 6 7 9 9 10 10 9 10 6 9 23 25 25 25 23 22 21 21 21 22 22 24 24 23 20 16 16
9 9 7 8 7 8 6 6 3 7 10 6 4 4 4 7 7 6 4 8 11 9 10 8 6 6 8 20 23 24 23 22 23 24 23 22 23 23 23 24 24 22 21
8 9 8 7 6 8 9 7 6 3 5 8 3 2 4 4 4 5 6 7 7 7 10 9 10 10 7 4 12 22 23 22 23 24 25 26 26 25 25 24 25 26 27
8 8 8 7 7 7 7 6 5 6 4 5 9 4 3 1 4 3 4 6 10 5 6 7 10 10 10 7 9 10 21 23 24 26 26 27 28 28 27 26 25 24 24
8 8 8 8 8 6 7 6 5 5 4 4 3 5 5 3 2 5 4 5 7 6 6 7 6 8 8 8 13 18 24 25 27 28 29 29 29 29 27 27 26 26 25
7 7 7 7 7 6 7 8 7 7 5 4 4 3 3 4 4 2 4 5 4 5 5 5 5 5 6 7 8 15 27 26 28 29 29 28 28 28 28 28 27 27 25
5 6 7 7 6 6 7 6 6 7 6 6 4 4 3 2 1 2 2 4 5 4 5 4 4 5 4 7 14 24 25 28 28 26 28 29 29 28 28 28 28 27 26
4 5 6 6 5 5 6 6 6 6 5 5 4 3 3 2 1 1 0 3 3 3 3 3 3 4 7 7 10 21 23 25 27 30 29 28 29 29 29 28 27 27 27
6 6 6 6 6 6 6 6 5 5 5 5 6 4 2 3 2 1 1 1 4 3 2 4 2 3 7 7 13 25 12 24 27 27 29 29 27 27 28 29 28 27 27
6 7 7 7 6 6 6 6 5 5 5 3 4 4 2 2 2 2 1 0 0 4 4 3 3 3 6 9 14 12 13 22 28 27 27 28 28 28 27 26 26 25 26
6 7 7 6 6 6 6 7 5 4 5 2 2 3 2 1 2 1 1 1 1 2 5 1 3 7 7 9 13 13 13 24 24 25 25 27 27 28 29 27 27 27 27
7 7 6 7 7 6 6 6 6 5 5 3 2 2 1 1 1 2 2 1 1 2 6 8 4 8 10 11 11 12 13 11 10 23 26 26 27 26 28 28 28 29 27
6 7 6 6 6 6 6 6 5 4 4 2 1 1 3 1 3 2 2 3 2 3 4 14 10 8 11 11 12 13 12 10 10 17 26 27 24 25 25 27 26 26 27
8 7 6 7 6 6 6 4 5 4 3 3 3 4 4 4 4 3 2 3 3 5 4 7 11 8 9 10 12 11 11 12 9 20 22 25 26 25 25 25 27 26 25
8 7 7 7 6 6 6 5 5 3 3 3 4 5 5 4 5 5 4 4 5 4 5 7 9 10 10 10 10 11 12 10 12 11 16 19 25 26 24 26 25 25 26
7 7 7 6 6 5 4 5 5 4 4 5 5 5 5 6 9 9 4 4 5 5 5 7 9 10 10 10 13 12 13 13 12 11 11 10 10 9 11 17 19 22 25
7 7 7 7 6 4 10 10 7 4 4 4 5 5 5 6 9 12 12 14 12 6 4 4 9 11 13 12 11 12 14 14 12 7 8 11 9 9 9 9 21 26 25
6 7 7 7 7 6 11 12 12 5 5 6 6 5 6 5 5 5 11 14 14 16 16 12 12 12 15 15 15 15 15 15 14 12 14 14 9 11 9 10 22 26 26
9 7 7 7 6 6 13 14 14 5 5 7 7 7 7 7 6 7 8 9 9 6 6 8 10 13 13 14 15 14 16 15 12 10 12 15 10 11 9 8 22 28 23
6 7 4 7 7 6 14 14 12 5 7 8 7 6 6 7 11 15 10 8 5 5 9 18 18 20 24 24 19 11 9 11 12 10 10 12 8 11 11 12 9 20 18
8 6 7 8 8 7 15 15 12 3 5 6 5 7 12 12 16 17 8 4 4 6 9 4 7 10 13 13 19 10 9 10 11 10 7 9 12 11 7 7 6 11 11
Wind_Direction
96 86 65 68 65 56 65 67 55 45 45 28 31 43 33 32 32 38 40 20 29 33 28 27 18 9 3 359 355 348 342 347 352 339 301 269 298 320 314 322 327 317 309
82 85 77 60 67 51 55 65 65 52 46 28 20 20 17 20 26 29 32 35 44 34 30 22 18 16 11 4 357 351 346 337 341 337 332 310 280 302 293 284 295 303 305
79 79 77 67 63 54 57 49 48 47 39 30 30 28 34 38 33 32 46 52 41 39 37 31 24 19 13 10 6 357 350 345 341 340 338 342 258 286 288 286 286 285 286
70 73 72 64 43 47 53 59 50 45 26 20 359 5 37 44 44 50 61 49 44 37 30 27 24 20 10 4 0 360 356 355 348 343 340 338 332 303 280 282 283 285 288
58 67 62 54 47 50 39 55 48 48 21 8 5 30 52 46 45 58 62 55 48 36 30 15 17 20 10 5 2 356 351 352 358 357 351 345 339 331 321 317 270 273 277
61 72 66 56 47 49 40 45 55 28 21 3 25 58 56 44 61 53 57 47 40 30 28 15 21 5 5 6 3 1 359 355 355 354 351 347 343 338 334 330 319 278 271
67 77 76 73 67 69 59 43 51 41 23 4 54 36 38 58 67 54 57 51 34 21 16 10 13 1 355 2 1 4 1 1 2 357 354 351 347 343 339 331 325 315 316
70 79 84 72 60 74 59 48 40 54 44 21 77 53 13 338 28 53 51 42 24 15 6 5 3 351 348 351 357 0 358 359 360 356 357 352 348 344 336 331 330 326 321
73 78 76 79 72 76 74 63 53 59 83 18 35 100 53 327 329 345 36 44 20 7 352 351 351 349 350 345 350 9 4 356 353 349 347 344 339 337 334 330 325 319 315
77 78 82 82 78 73 74 72 53 59 77 57 16 37 56 109 67 330 349 16 1 354 340 340 341 342 347 357 358 8 359 350 344 340 337 335 332 329 327 324 322 319 313
78 82 83 83 82 82 75 75 63 61 60 83 61 12 27 41 54 89 288 324 338 322 324 319 329 329 352 13 356 350 347 343 340 335 333 330 328 328 324 321 318 315 314
95 86 88 83 82 81 81 83 80 71 69 74 70 59 70 79 39 41 307 307 306 285 303 306 332 340 3 3 353 348 342 336 334 334 330 326 324 323 321 320 318 315 313
120 116 103 100 98 102 98 93 88 82 72 79 78 71 69 67 67 27 316 293 296 293 294 305 330 7 9 354 343 341 338 332 333 326 325 322 319 318 317 315 313 312 311
135 127 114 117 113 111 105 98 92 95 93 81 83 64 69 54 43 41 345 354 309 297 305 274 293 22 1 345 338 335 326 331 324 323 322 319 316 315 318 314 312 309 307
131 128 133 127 117 111 112 109 95 95 95 88 91 74 65 49 36 26 39 350 234 319 301 291 320 27 341 335 329 328 324 318 323 321 318 319 317 313 309 313 310 305 303
132 139 140 133 125 121 118 112 108 107 105 80 100 70 48 5 9 15 359 326 348 228 278 271 314 320 336 320 321 322 312 317 316 320 321 317 313 321 316 311 314 315 317
144 150 147 144 142 127 120 113 118 126 112 122 74 64 335 317 270 316 326 298 261 237 268 293 323 319 317 318 314 310 306 304 308 314 316 318 316 317 315 314 308 307 308
152 158 157 146 137 132 125 131 144 138 148 152 214 266 262 284 296 284 270 272 249 247 264 291 310 312 311 311 302 297 302 302 301 302 313 318 316 316 313 314 313 318 304
157 164 160 148 148 143 138 148 164 174 174 207 231 245 264 265 277 257 248 267 248 281 257 275 294 302 299 303 301 298 296 296 294 302 305 308 310 308 310 309 314 312 311
158 169 164 152 159 151 152 170 183 188 215 232 246 251 257 253 258 258 260 255 262 257 268 277 290 300 299 305 294 302 304 299 301 300 298 295 297 298 299 307 308 308 306
173 172 152 157 167 161 169 185 189 197 223 246 252 253 249 248 251 266 270 244 244 258 270 284 291 298 301 308 309 307 299 303 301 296 293 292 293 290 294 294 295 296 295
174 171 161 170 177 182 195 201 185 199 222 241 257 256 251 252 266 275 277 284 281 278 261 288 290 299 304 307 308 306 300 301 304 297 302 301 292 290 288 285 292 302 304
169 176 171 179 192 195 205 211 214 201 216 231 241 254 255 245 241 247 275 284 286 287 288 302 306 302 306 305 303 304 311 314 308 316 303 298 298 290 291 290 298 301 301
187 175 190 193 192 206 213 218 222 206 226 238 243 246 251 258 240 254 255 258 262 258 274 291 294 296 293 310 311 307 306 304 298 293 288 291 301 292 298 289 294 297 303
181 188 176 191 201 207 218 222 222 195 226 239 243 247 243 252 256 270 272 271 258 278 288 300 303 313 310 311 315 317 316 313 307 312 309 305 319 320 306 294 280 295 308
194 188 202 199 203 207 219 226 230 193 226 241 245 254 252 252 254 261 271 232 268 286 299 326 310 311 312 307 318 317 309 308 313 306 304 312 304 316 303 288 307 318 302